When you browse on this site, cookies collect data to enhance your experience and personalize the content and advertising you see.
Visit our Privacy Policy to learn more. By continuing to use the site, you agree to this use of cookies and data.
  • In Austria
  • List of Countries
  • For 7 days
  • Water Temperature
  • Satellite Maps
  • Weather Map
  • News
  • Weather Widgets
  • user-avatar
    Login

    Hourly Weather Stow

    Today, 19 April, Friday

    Time Temperature Precipitation Wind Pressure Humidity
    00:00 +16°C° 0.1 mm 1 mps 722 mmHg 89%
    01:00 +14°C° 0.1 mm 0 mps 722 mmHg 93%
    02:00 +14°C° 0.7 mm 0 mps 722 mmHg 94%
    03:00 +15°C° 0.7 mm 1 mps 721 mmHg 95%
    04:00 +15°C° 0.7 mm 1 mps 721 mmHg 95%
    05:00 +15°C° 0.4 mm 2 mps 720 mmHg 94%
    06:00 +16°C° 0.4 mm 2 mps 720 mmHg 93%
    07:00 +16°C° 0.4 mm 3 mps 719 mmHg 92%
    08:00 +17°C° 0.9 mm 4 mps 719 mmHg 89%
    09:00 +16°C° 0.9 mm 5 mps 719 mmHg 86%
    10:00 +17°C° 0.9 mm 6 mps 718 mmHg 83%
    11:00 +17°C° 0.1 mm 6 mps 718 mmHg 81%
    12:00 +17°C° 0.1 mm 5 mps 718 mmHg 79%
    13:00 +18°C° 0.1 mm 4 mps 718 mmHg 77%
    14:00 +17°C° 0 mm 4 mps 718 mmHg 80%
    15:00 +14°C° 0 mm 4 mps 718 mmHg 83%
    16:00 +13°C° 0 mm 3 mps 718 mmHg 86%
    17:00 +11°C° 0.1 mm 4 mps 718 mmHg 88%
    18:00 +10°C° 0.1 mm 4 mps 718 mmHg 90%
    19:00 +8°C° 0.1 mm 4 mps 719 mmHg 92%
    20:00 +7°C° 0.2 mm 5 mps 719 mmHg 92%
    21:00 +7°C° 0.2 mm 5 mps 719 mmHg 92%
    22:00 +7°C° 0.2 mm 5 mps 719 mmHg 92%
    23:00 +7°C° 0 mm 5 mps 719 mmHg 92%

    Tomorrow, 20 April, Saturday

    Time Temperature Precipitation Wind Pressure Humidity
    00:00 +7°C° 0 mm 5 mps 718 mmHg 92%
    01:00 +7°C° 0 mm 5 mps 718 mmHg 92%
    02:00 +7°C° 0.1 mm 5 mps 717 mmHg 93%
    03:00 +7°C° 0.1 mm 5 mps 716 mmHg 93%
    04:00 +7°C° 0.1 mm 5 mps 716 mmHg 94%
    05:00 +8°C° 1.5 mm 5 mps 715 mmHg 95%
    06:00 +11°C° 1.5 mm 4 mps 715 mmHg 95%
    07:00 +12°C° 1.5 mm 4 mps 715 mmHg 96%
    08:00 +13°C° 0.3 mm 5 mps 715 mmHg 88%
    09:00 +14°C° 0.3 mm 6 mps 716 mmHg 79%
    10:00 +15°C° 0.3 mm 6 mps 716 mmHg 70%
    11:00 +14°C° 0 mm 6 mps 716 mmHg 68%
    12:00 +14°C° 0 mm 6 mps 717 mmHg 66%
    13:00 +13°C° 0 mm 6 mps 717 mmHg 63%
    14:00 +13°C° 0.1 mm 6 mps 718 mmHg 64%
    15:00 +11°C° 0.1 mm 6 mps 718 mmHg 65%
    16:00 +11°C° 0.1 mm 6 mps 719 mmHg 66%
    17:00 +10°C° 0.1 mm 5 mps 719 mmHg 70%
    18:00 +8°C° 0.1 mm 4 mps 720 mmHg 75%
    19:00 +7°C° 0.1 mm 4 mps 721 mmHg 79%
    20:00 +8°C° 0 mm 3 mps 721 mmHg 81%
    21:00 +7°C° 0 mm 3 mps 722 mmHg 84%
    22:00 +7°C° 0 mm 2 mps 722 mmHg 86%
    23:00 +7°C° 0 mm 2 mps 723 mmHg 87%

    Day after tomorrow, 21 April, Sunday

    Time Temperature Precipitation Wind Pressure Humidity
    00:00 +7°C° 0 mm 2 mps 723 mmHg 89%
    01:00 +7°C° 0 mm 1 mps 724 mmHg 90%
    02:00 +8°C° 0 mm 1 mps 724 mmHg 89%
    03:00 +8°C° 0 mm 1 mps 725 mmHg 89%
    04:00 +8°C° 0 mm 1 mps 725 mmHg 89%
    05:00 +8°C° 0 mm 1 mps 726 mmHg 89%
    06:00 +8°C° 0 mm 1 mps 727 mmHg 88%
    07:00 +7°C° 0 mm 2 mps 727 mmHg 88%
    08:00 +9°C° 0 mm 2 mps 728 mmHg 82%
    09:00 +10°C° 0 mm 2 mps 729 mmHg 77%
    10:00 +12°C° 0 mm 2 mps 730 mmHg 71%
    11:00 +13°C° 0 mm 2 mps 730 mmHg 67%
    12:00 +14°C° 0 mm 2 mps 731 mmHg 63%
    13:00 +15°C° 0 mm 2 mps 731 mmHg 59%
    14:00 +15°C° 0 mm 2 mps 731 mmHg 58%
    15:00 +16°C° 0 mm 2 mps 731 mmHg 58%
    16:00 +16°C° 0 mm 2 mps 732 mmHg 57%
    17:00 +15°C° 0 mm 2 mps 732 mmHg 63%
    18:00 +14°C° 0 mm 1 mps 732 mmHg 68%
    19:00 +13°C° 0 mm 1 mps 733 mmHg 74%
    20:00 +12°C° 0 mm 1 mps 733 mmHg 77%
    21:00 +12°C° 0 mm 1 mps 733 mmHg 80%
    22:00 +11°C° 0 mm 1 mps 734 mmHg 83%
    23:00 +11°C° 0 mm 1 mps 734 mmHg 85%

    22 April, Monday

    Time Temperature Precipitation Wind Pressure Humidity
    00:00 +9°C° 0 mm 2 mps 734 mmHg 87%
    01:00 +9°C° 0 mm 2 mps 734 mmHg 89%
    02:00 +9°C° 0 mm 2 mps 734 mmHg 88%
    03:00 +9°C° 0 mm 2 mps 734 mmHg 87%
    04:00 +9°C° 0 mm 3 mps 734 mmHg 87%
    05:00 +9°C° 0.5 mm 3 mps 734 mmHg 88%
    06:00 +10°C° 0.5 mm 3 mps 734 mmHg 89%
    07:00 +12°C° 0.5 mm 2 mps 734 mmHg 89%
    08:00 +12°C° 0.3 mm 3 mps 734 mmHg 87%
    09:00 +14°C° 0.3 mm 3 mps 734 mmHg 84%
    10:00 +17°C° 0.3 mm 3 mps 735 mmHg 81%
    11:00 +19°C° 0 mm 3 mps 734 mmHg 77%
    12:00 +20°C° 0 mm 3 mps 734 mmHg 73%
    13:00 +22°C° 0 mm 4 mps 734 mmHg 69%
    14:00 +21°C° 0.6 mm 3 mps 734 mmHg 74%
    15:00 +20°C° 0.6 mm 2 mps 734 mmHg 80%
    16:00 +19°C° 0.6 mm 2 mps 733 mmHg 85%
    17:00 +18°C° 0.2 mm 2 mps 734 mmHg 86%
    18:00 +18°C° 0.2 mm 2 mps 734 mmHg 88%
    19:00 +17°C° 0.2 mm 2 mps 734 mmHg 90%
    20:00 +16°C° 0 mm 2 mps 734 mmHg 91%
    21:00 +15°C° 0 mm 2 mps 735 mmHg 93%
    22:00 +13°C° 0 mm 2 mps 735 mmHg 94%
    23:00 +13°C° 0.1 mm 2 mps 735 mmHg 93%

    23 April, Tuesday

    Time Temperature Precipitation Wind Pressure Humidity
    00:00 +12°C° 0.1 mm 2 mps 735 mmHg 92%
    01:00 +11°C° 0.1 mm 1 mps 735 mmHg 91%
    02:00 +10°C° 0 mm 2 mps 735 mmHg 91%
    03:00 +9°C° 0 mm 2 mps 735 mmHg 91%
    04:00 +9°C° 0 mm 2 mps 735 mmHg 91%
    05:00 +9°C° 0.2 mm 2 mps 735 mmHg 92%
    06:00 +9°C° 0.2 mm 2 mps 736 mmHg 92%
    07:00 +9°C° 0.2 mm 2 mps 736 mmHg 93%
    08:00 +9°C° 0.4 mm 2 mps 736 mmHg 93%
    09:00 +10°C° 0.4 mm 2 mps 737 mmHg 93%
    10:00 +10°C° 0.4 mm 2 mps 737 mmHg 93%
    11:00 +12°C° 0 mm 2 mps 737 mmHg 89%
    12:00 +13°C° 0 mm 2 mps 737 mmHg 85%
    13:00 +13°C° 0 mm 3 mps 737 mmHg 81%
    14:00 +14°C° 0 mm 3 mps 736 mmHg 78%
    15:00 +14°C° 0 mm 3 mps 736 mmHg 76%
    16:00 +14°C° 0 mm 3 mps 736 mmHg 73%
    17:00 +13°C° 0 mm 3 mps 736 mmHg 76%
    18:00 +11°C° 0 mm 3 mps 736 mmHg 79%
    19:00 +10°C° 0 mm 3 mps 736 mmHg 82%
    20:00 +9°C° 0 mm 3 mps 736 mmHg 84%
    21:00 +9°C° 0 mm 2 mps 736 mmHg 86%
    22:00 +8°C° 0 mm 2 mps 736 mmHg 88%
    23:00 +8°C° 0 mm 2 mps 736 mmHg 88%

    24 April, Wednesday

    Time Temperature Precipitation Wind Pressure Humidity
    00:00 +8°C° 0 mm 2 mps 736 mmHg 88%
    01:00 +8°C° 0 mm 3 mps 736 mmHg 88%
    02:00 +8°C° 0 mm 3 mps 736 mmHg 80%
    03:00 +8°C° 0 mm 4 mps 736 mmHg 71%
    04:00 +8°C° 0 mm 4 mps 736 mmHg 63%
    05:00 +8°C° 0 mm 4 mps 736 mmHg 60%
    06:00 +8°C° 0 mm 4 mps 736 mmHg 56%
    07:00 +8°C° 0 mm 4 mps 736 mmHg 52%
    08:00 +8°C° 0 mm 4 mps 736 mmHg 54%
    09:00 +8°C° 0 mm 4 mps 736 mmHg 56%
    10:00 +10°C° 0 mm 4 mps 736 mmHg 58%
    11:00 +11°C° 0 mm 4 mps 735 mmHg 58%
    12:00 +12°C° 0 mm 4 mps 735 mmHg 58%
    13:00 +13°C° 0 mm 4 mps 734 mmHg 58%
    14:00 +15°C° 0 mm 4 mps 733 mmHg 59%
    15:00 +18°C° 0 mm 4 mps 733 mmHg 59%
    16:00 +20°C° 0 mm 4 mps 732 mmHg 59%
    17:00 +19°C° 0 mm 4 mps 732 mmHg 65%
    18:00 +18°C° 0 mm 4 mps 731 mmHg 70%
    19:00 +17°C° 0 mm 3 mps 731 mmHg 75%
    20:00 +17°C° 0.4 mm 4 mps 731 mmHg 78%
    21:00 +15°C° 0.4 mm 4 mps 730 mmHg 81%
    22:00 +15°C° 0.4 mm 4 mps 730 mmHg 85%
    23:00 +15°C° 0.5 mm 4 mps 730 mmHg 88%
    Show more